Preview of NWS' New Version of Forecast
This preview is not operational and should not be used for support decisions.

Regional Weather Roundup (RWR)

Issued by National Weather Service (NWS)

                            
000
ASUS46 KSEW 180110
RWRWA 

WASHINGTON REGIONAL WEATHER ROUNDUP
NATIONAL WEATHER SERVICE SEATTLE WA
600 PM PDT SUN MAR 17 2019

NOTE:"FAIR" INDICATES FEW OR NO CLOUDS BELOW 12,000 FEET WITH NO 
SIGNIFICANT WEATHER AND/OR OBSTRUCTIONS TO VISIBILITY.

WAZ507-509-555>559-180200-
SEATTLE, TACOMA, EVERETT, AND VICINITY
  
CITY           SKY/WX    TMP DP  RH WIND       PRES   REMARKS
EVERETT        MOSUNNY   56  41  57 NW5       30.26F                  
BOEING FIELD   MOSUNNY   60  40  47 NW9       30.24F                  
RENTON         SUNNY     61  41  47 NW12      30.23F                  
SEATAC AIRPORT MOSUNNY   63  40  42 N12       30.23F                  
JBLM-MCCHORD   SUNNY     62  44  52 NE9       30.23F                  
PUYALLUP       FAIR      63  43  48 NW5       30.24S                  
BREMERTON      SUNNY     63  40  42 NE12      30.23F                  
JBLM-FT LEWIS  SUNNY     63  45  52 N6        30.22F                  
TACOMA NARROWS SUNNY     59  38  45 N9        30.24F                  
$$
 
WAZ001-503-506-510-514-515-180200-
NORTH INTERIOR
  
CITY           SKY/WX    TMP DP  RH WIND       PRES   REMARKS
BELLINGHAM     SUNNY     59  41  51 W6        30.26F                  
FRIDAY HARBOR  SUNNY     57  36  45 N7        30.27F                  
EASTSOUND      SUNNY     52  43  71 NW5       30.27F                  
PORT ANGELES   SUNNY     57  36  45 E7        30.27F                  
EDIZ HOOK      FAIR      52  41  65 SE5       30.27F                  
PORT TOWNSEND  FAIR      57  39  51 VRB6      30.26S                  
NAS WHIDBEY    MOSUNNY   54  42  64 W6        30.30F                  
ARLINGTON      SUNNY     58  42  55 NW10      30.24F                  
BURLINGTON     SUNNY     57  43  58 W8        30.26F                  
$$
 
WAZ020-022-039-040-504-511-512-180200-
SOUTHWEST INTERIOR
  
CITY           SKY/WX    TMP DP  RH WIND       PRES   REMARKS
SHELTON        SUNNY     69  36  29 VRB5      30.19F                  
OLYMPIA        SUNNY     64  38  38 NE8       30.22F                  
CHEHALIS       FAIR      64  43  45 N9        30.20F                  
KELSO          SUNNY     71  41  33 N7        30.17F                  
VANCOUVER      SUNNY     67  24  19 E18G24    30.16F                  
SCAPPOOSE, OR  SUNNY     71  32  23 NE10      30.16F                  
PORTLAND, OR   SUNNY     65  28  24 E20       30.17F                  
$$
 
WAZ021-516-517-180200-
WASHINGTON COAST
  
CITY           SKY/WX    TMP DP  RH WIND       PRES   REMARKS
FORKS          SUNNY     67  36  31 NE10      30.20F                  
HOQUIAM        SUNNY     70  41  34 NE9       30.18F                  
ASTORIA, OR    SUNNY     69  40  34 E14       30.14F                  
$$
 
WAZ019-023-024-040-567>569-180200-
CASCADE MOUNTAINS AND COLUMBIA GORGE
  
CITY           SKY/WX    TMP DP  RH WIND       PRES   REMARKS
STAMPEDE PASS  NOT AVBL                                               
TROUTDALE, OR  SUNNY     58  32  37 E22G29    30.19S                  
HOOD RIVER, OR CLEAR     52  32  46 MISG      30.34F                  
THE DALLES, OR SUNNY     53  35  50 E8        30.36F                  
$$

WAZ026-027-041>044-520-521-180200-
EAST SLOPES
  
CITY           SKY/WX    TMP DP  RH WIND       PRES   REMARKS
OMAK           SUNNY     51  33  50 S5        30.33F                  
WENATCHEE      SUNNY     50  30  46 CALM      30.34S                  
ELLENSBURG     SUNNY     51  31  46 N5        30.34F                  
YAKIMA         SUNNY     50  29  44 SW8       30.34F                  
SUNNYSIDE ARPT CLEAR     49  36  60 S6        30.36                   
YAKIMA TC      FAIR      52  33  49 S6        30.32F                  
$$

WAZ028-034-035-180200-
COLUMBIA BASIN
  
CITY           SKY/WX    TMP DP  RH WIND       PRES   REMARKS
EPHRATA        SUNNY     44  33  65 SW6       30.34F                  
MOSES LAKE     SUNNY     47  33  58 W7        30.35F                  
PASCO          SUNNY     49  34  56 CALM      30.38F                  
RICHLAND ARPT  CLEAR     51  36  57 MISG      30.37F                  
HERMISTON, OR  SUNNY     51  33  50 E9        30.36S                  
$$

WAZ036>038-180200-
NORTHEAST WASHINGTON
  
CITY           SKY/WX    TMP DP  RH WIND       PRES   REMARKS
SPOKANE GEIGER CLEAR     43  29  57 SW7       30.31F                  
SPOKANE FELTS  CLEAR     50  27  40 SW7       30.31F                  
FAIRCHILD AFB  CLEAR     41  30  66 W7        30.30F                  
COEURDALENE,ID CLEAR     43  29  57 SW5       30.30F                  
DEER PARK      CLEAR     47  27  45 MISG      30.30F                  
$$

WAZ029>033-180200-
SOUTHEAST WASHINGTON
  
CITY           SKY/WX    TMP DP  RH WIND       PRES   REMARKS
PULLMAN        CLEAR     39  30  70 NW5       30.33F                  
LEWISTON, ID   CLEAR     51  33  50 W8        30.32F                  
WALLA WALLA    CLEAR     48  34  58 CALM      30.35F                  
PENDLETON, OR  SUNNY     46  35  65 NE7       30.34F                  
$$